Location: La Comballaz
(46.3780°N, 7.0817°E)
Time: 04:18:40
(UTC+00:00)

Envisat - Pass Details

Date: 15 December 2021
Orbit: 764 x 766 km, 98.2° (Epoch: 16 January)

Event Time Altitude Azimuth Distance (km) Brightness Sun altitude
Rises 16:39:15 0° 201° (SSW) 3,220 7.0 -8.9°
Reaches altitude 10° 16:42:00 10° 216° (SW) 2,299 6.5 -9.4°
Maximum altitude 16:45:59 23° 268° (W) 1,585 5.6 -10.0°
Drops below altitude 10° 16:50:00 10° 320° (NW) 2,312 5.7 -10.6°
Sets 16:52:47 0° 335° (NNW) 3,244 6.3 -11.1°
